Location: Unspecified
(41.5000°N, 0.0000°E)
Time: 04:20:19
(UTC+00:00)

deb Explorer IX - Pass Details

Date: 23 June 2019
Orbit: 540 x 1111 km, 38.8° (Epoch: 20 August)

Event Time Altitude Azimuth Distance (km) Brightness Sun altitude
Rises 12:53:11 0° 229° (SW) 3,705 ? 69.0°
Reaches altitude 10° 12:55:53 10° 223° (SW) 2,823 ? 68.7°
Maximum altitude 13:02:24 43° 155° (SSE) 1,494 ? 68.0°
Drops below altitude 10° 13:09:16 10° 87° (E) 2,974 ? 67.1°
Sets 13:12:11 0° 81° (E) 3,921 ? 66.8°
